Volver al catálogo

STARLINK-1446

ActivoComunicacionesVLEO
NORAD 45663·PAYLOAD·🇺🇸 United States

Lanzado Jun 4, 2020 desde Cape Canaveral Space Force Station

Loading…

Próximos Pases (próximas 24 horas)

TLE

ActualizadoSource: CelesTrak SupGP

Época: Sep 14, 2026, 22:10 UTC

1 45663C 20035G   26257.92409722 -.00005084  00000+0 -78744-4 0  2570
2 45663  53.0178 173.5737 0004012 117.2375 244.9922 15.53413832    14

Sigue STARLINK-1446 en tiempo real con AllMySat

Download on the App Store